Regional Weather Roundup
Issued by NWS

Home | Current Version | Previous Version | Graphics & Text | Print | Product List | Glossary On
Versions: 1 2 3 4 5 6 7 8 9 10 11 12 13 14 15 16 17 18 19 20 21 22 23 24 25 26 27 28 29 30 31 32 33 34 35 36 37 38 39 40 41 42 43 44 45 46 47 48 49 50
000
ASUS43 KTOP 022059
RWRKS

WEATHER ROUNDUP FOR KANSAS
NATIONAL WEATHER SERVICE GOODLAND KS
300 PM CST MON MAR 02 2015

NOTE:  "FAIR" INDICATES FEW OR NO CLOUDS BELOW 12,000 FEET WITH NO
SIGNIFICANT WEATHER AND/OR OBSTRUCTIONS TO VISIBILITY.

KSZ001>006-013>018-027>032-041>047-022200-
NORTHWEST KANSAS

CITY           SKY/WX    TMP DP  RH WIND       PRES   REMARKS
GOODLAND       CLOUDY    30  25  81 S22       29.91F WCI  17
HILL CITY      PTSUNNY   35  20  54 S17G28    30.06F WCI  25
RUSSELL        CLOUDY    35  18  49 S18G25    30.11F WCI  24
$$

KSZ061>065-074>080-084>089-022200-
SOUTHWEST KANSAS

CITY           SKY/WX    TMP DP  RH WIND       PRES   REMARKS
DODGE CITY     CLOUDY    31  22  69 S18G24    30.09F WCI  19
ELKHART          N/A     35  25  67 S16         N/A  WCI  25
$$

KSZ066>073-081>083-090>101-022200-
SOUTHEAST KANSAS

CITY           SKY/WX    TMP DP  RH WIND       PRES   REMARKS
CHANUTE        CLOUDY    37  23  56 SE12      30.27F WCI  29
COFFEYVILLE    CLOUDY    36  26  67 SE9       30.29F
HUTCHINSON     CLOUDY    36  20  52 SE14      30.19F WCI  27
MEDICINE LODGE   N/A     32  23  69 S9        30.18F
PARSONS        CLOUDY    38  24  57 SE7       30.28F
WICHITA INTL   CLOUDY    35  22  58 S13       30.20F WCI  26
$$

KSZ007>012-019>026-033>040-048>060-102>105-022200-
NORTHEAST KANSAS

CITY           SKY/WX    TMP DP  RH WIND       PRES   REMARKS
EMPORIA        CLOUDY    35  19  52 SE16      30.24F WCI  25
LAWRENCE       CLOUDY    37  19  48 SE17      30.28F WCI  27
MANHATTAN      CLOUDY    39  18  42 SE14      30.23F WCI  31
OLATHE IND     CLOUDY    35  21  56 SE9       30.29F
OLATHE EXE     CLOUDY    36  20  52 E13       30.28F WCI  27
SALINA         CLOUDY    37  18  46 SE15      30.21F WCI  28
TOPEKA BILLARD CLOUDY    39  17  41 SE15G22   30.28F WCI  31
TOPEKA FORBES  CLOUDY    38  18  44 SE15      30.25F WCI  29
$$


USA.gov is the U.S. government's official web portal to all federal, state and local government web resources and services.